{"data":{"norad_id":58809,"intl_designator":"2024-012Y","name":"STARLINK-31169","alt_names":[],"object_type":"PAYLOAD","status":"ACTIVE","operator":null,"country":"US","launch_date":"2024-01-15","launch_site_code":"AFETR","launch_vehicle":null,"mission":null,"orbit_class":"UNKNOWN","rcs_meters":null,"size_class":null,"mass_kg":null,"dimensions":null,"purposes":["comms"],"wikipedia_slug":null,"has_3d_model":false,"image_url":null,"decayed_at":null,"tle_current":{"epoch":"2026-09-19T10:06:43.403616Z","epoch_age_seconds":245688,"freshness":"STALE","line1":"1 58809U 24012Y   26262.42133569  .00001312  00000+0  57225-4 0  9991","line2":"2 58809  43.0084 151.2411 0002449 267.4914  92.5657 15.27576006150861","mean_motion":15.27576006,"eccentricity":0.0002449,"inclination_deg":43.0084,"raan_deg":151.2411,"arg_perigee_deg":267.4914,"mean_anomaly_deg":92.5657,"bstar":5.7225e-5,"rev_number":15086,"period_min":94.266995183479,"perigee_km":481.38074813474,"apogee_km":484.74136294235,"semimajor_km":6861.1980555385,"source":"CELESTRAK","updated_at":"2026-09-21T09:00:33.982475Z"}}}